When you browse on this site, cookies collect data to enhance your experience and personalize the content and advertising you see.
Visit our Privacy Policy to learn more. By continuing to use the site, you agree to this use of cookies and data.
  • In Schweiz
  • Länderverzeichnis
  • Für 7 Tage
  • Wassertemperatur
  • Wetterkarte
  • Widgets
  • user-avatar
    Anmelden

    Stündliche Wetter Ayachcho

    Heute, 4 Juni, Donnerstag

    Zeit Temperatur Niederschläge Wind Luftdruck Luftfeuchtigkeit
    00:00 +18°C° 0 mm 2 m/S 742 mmHg 53%
    01:00 +18°C° 0 mm 3 m/S 742 mmHg 51%
    02:00 +18°C° 0 mm 3 m/S 741 mmHg 52%
    03:00 +18°C° 0 mm 3 m/S 741 mmHg 52%
    04:00 +18°C° 0 mm 3 m/S 740 mmHg 52%
    05:00 +19°C° 0 mm 3 m/S 740 mmHg 53%
    06:00 +20°C° 0 mm 3 m/S 740 mmHg 53%
    07:00 +21°C° 0 mm 3 m/S 740 mmHg 53%
    08:00 +22°C° 0 mm 3 m/S 739 mmHg 50%
    09:00 +24°C° 0 mm 3 m/S 739 mmHg 46%
    10:00 +26°C° 0 mm 4 m/S 739 mmHg 43%
    11:00 +26°C° 0.1 mm 4 m/S 738 mmHg 44%
    12:00 +25°C° 0.1 mm 4 m/S 738 mmHg 45%
    13:00 +25°C° 0.1 mm 4 m/S 737 mmHg 47%
    14:00 +25°C° 0.1 mm 4 m/S 737 mmHg 54%
    15:00 +25°C° 0.1 mm 5 m/S 736 mmHg 61%
    16:00 +23°C° 0.1 mm 5 m/S 736 mmHg 68%
    17:00 +22°C° 0.7 mm 5 m/S 736 mmHg 77%
    18:00 +21°C° 0.7 mm 5 m/S 735 mmHg 85%
    19:00 +20°C° 0.7 mm 5 m/S 735 mmHg 93%
    20:00 +20°C° 0.7 mm 5 m/S 736 mmHg 93%
    21:00 +19°C° 0.7 mm 5 m/S 736 mmHg 93%
    22:00 +19°C° 0.7 mm 5 m/S 736 mmHg 93%
    23:00 +17°C° 0.6 mm 6 m/S 736 mmHg 92%

    Morgen, 5 Juni, Freitag

    Zeit Temperatur Niederschläge Wind Luftdruck Luftfeuchtigkeit
    00:00 +17°C° 0.6 mm 6 m/S 736 mmHg 90%
    01:00 +16°C° 0.6 mm 6 m/S 736 mmHg 89%
    02:00 +16°C° 0.6 mm 7 m/S 736 mmHg 89%
    03:00 +16°C° 0.6 mm 7 m/S 736 mmHg 89%
    04:00 +16°C° 0.6 mm 7 m/S 735 mmHg 89%
    05:00 +16°C° 0.8 mm 7 m/S 735 mmHg 89%
    06:00 +16°C° 0.8 mm 8 m/S 735 mmHg 88%
    07:00 +17°C° 0.8 mm 8 m/S 735 mmHg 87%
    08:00 +17°C° 0.4 mm 9 m/S 736 mmHg 83%
    09:00 +18°C° 0.4 mm 10 m/S 736 mmHg 79%
    10:00 +18°C° 0.4 mm 11 m/S 737 mmHg 74%
    11:00 +18°C° 0 mm 10 m/S 737 mmHg 72%
    12:00 +18°C° 0 mm 10 m/S 737 mmHg 70%
    13:00 +19°C° 0 mm 10 m/S 738 mmHg 68%
    14:00 +18°C° 0 mm 9 m/S 738 mmHg 68%
    15:00 +18°C° 0 mm 9 m/S 738 mmHg 69%
    16:00 +18°C° 0 mm 9 m/S 738 mmHg 69%
    17:00 +18°C° 0 mm 8 m/S 738 mmHg 72%
    18:00 +18°C° 0 mm 8 m/S 739 mmHg 75%
    19:00 +18°C° 0 mm 8 m/S 739 mmHg 77%
    20:00 +18°C° 0.1 mm 8 m/S 739 mmHg 80%
    21:00 +18°C° 0.1 mm 7 m/S 740 mmHg 83%
    22:00 +17°C° 0.1 mm 7 m/S 740 mmHg 86%
    23:00 +17°C° 0.1 mm 7 m/S 740 mmHg 87%

    übermorgen, 6 Juni, Samstag

    Zeit Temperatur Niederschläge Wind Luftdruck Luftfeuchtigkeit
    00:00 +17°C° 0.1 mm 6 m/S 740 mmHg 87%
    01:00 +17°C° 0.1 mm 6 m/S 741 mmHg 88%
    02:00 +17°C° 0 mm 6 m/S 741 mmHg 88%
    03:00 +17°C° 0 mm 6 m/S 741 mmHg 89%
    04:00 +16°C° 0 mm 5 m/S 741 mmHg 89%
    05:00 +17°C° 0 mm 5 m/S 741 mmHg 87%
    06:00 +19°C° 0 mm 5 m/S 742 mmHg 85%
    07:00 +19°C° 0 mm 5 m/S 742 mmHg 83%
    08:00 +20°C° 0.1 mm 5 m/S 743 mmHg 79%
    09:00 +21°C° 0.1 mm 5 m/S 743 mmHg 75%
    10:00 +22°C° 0.1 mm 5 m/S 743 mmHg 71%
    11:00 +22°C° 0 mm 5 m/S 743 mmHg 69%
    12:00 +22°C° 0 mm 5 m/S 743 mmHg 66%
    13:00 +23°C° 0 mm 5 m/S 744 mmHg 64%
    14:00 +22°C° 0 mm 5 m/S 744 mmHg 65%
    15:00 +22°C° 0 mm 4 m/S 743 mmHg 66%
    16:00 +22°C° 0 mm 4 m/S 743 mmHg 67%
    17:00 +21°C° 0 mm 4 m/S 743 mmHg 70%
    18:00 +21°C° 0 mm 3 m/S 743 mmHg 74%
    19:00 +20°C° 0 mm 3 m/S 743 mmHg 77%
    20:00 +19°C° 0 mm 3 m/S 743 mmHg 80%
    21:00 +18°C° 0 mm 2 m/S 743 mmHg 82%
    22:00 +17°C° 0 mm 2 m/S 744 mmHg 85%
    23:00 +17°C° 0 mm 2 m/S 743 mmHg 83%

    7 Juni, Sonntag

    Zeit Temperatur Niederschläge Wind Luftdruck Luftfeuchtigkeit
    00:00 +17°C° 0 mm 3 m/S 743 mmHg 82%
    01:00 +17°C° 0 mm 3 m/S 743 mmHg 80%
    02:00 +17°C° 0 mm 3 m/S 743 mmHg 82%
    03:00 +17°C° 0 mm 3 m/S 743 mmHg 83%
    04:00 +17°C° 0 mm 3 m/S 743 mmHg 84%
    05:00 +18°C° 0 mm 3 m/S 743 mmHg 83%
    06:00 +19°C° 0 mm 3 m/S 743 mmHg 82%
    07:00 +20°C° 0 mm 3 m/S 743 mmHg 82%
    08:00 +21°C° 0.1 mm 3 m/S 743 mmHg 81%
    09:00 +21°C° 0.1 mm 3 m/S 743 mmHg 81%
    10:00 +22°C° 0.1 mm 3 m/S 743 mmHg 80%
    11:00 +24°C° 0.3 mm 3 m/S 743 mmHg 76%
    12:00 +24°C° 0.3 mm 3 m/S 743 mmHg 73%
    13:00 +25°C° 0.3 mm 4 m/S 743 mmHg 69%
    14:00 +24°C° 0.1 mm 3 m/S 743 mmHg 72%
    15:00 +22°C° 0.1 mm 3 m/S 743 mmHg 76%
    16:00 +23°C° 0.1 mm 2 m/S 743 mmHg 79%
    17:00 +21°C° 0.1 mm 3 m/S 743 mmHg 80%
    18:00 +21°C° 0.1 mm 3 m/S 742 mmHg 81%
    19:00 +21°C° 0.1 mm 3 m/S 742 mmHg 82%
    20:00 +20°C° 0.1 mm 2 m/S 742 mmHg 85%
    21:00 +19°C° 0.1 mm 2 m/S 743 mmHg 88%
    22:00 +19°C° 0.1 mm 2 m/S 743 mmHg 90%
    23:00 +19°C° 0 mm 2 m/S 743 mmHg 91%

    8 Juni, Montag

    Zeit Temperatur Niederschläge Wind Luftdruck Luftfeuchtigkeit
    00:00 +19°C° 0 mm 2 m/S 743 mmHg 91%
    01:00 +19°C° 0 mm 2 m/S 743 mmHg 91%
    02:00 +19°C° 0 mm 2 m/S 742 mmHg 91%
    03:00 +19°C° 0 mm 2 m/S 742 mmHg 91%
    04:00 +18°C° 0 mm 2 m/S 742 mmHg 91%
    05:00 +19°C° 0 mm 2 m/S 742 mmHg 88%
    06:00 +19°C° 0 mm 2 m/S 742 mmHg 84%
    07:00 +20°C° 0 mm 2 m/S 742 mmHg 81%
    08:00 +21°C° 0 mm 2 m/S 743 mmHg 72%
    09:00 +22°C° 0 mm 3 m/S 743 mmHg 63%
    10:00 +23°C° 0 mm 4 m/S 743 mmHg 55%
    11:00 +23°C° 0 mm 4 m/S 743 mmHg 54%
    12:00 +23°C° 0 mm 5 m/S 744 mmHg 53%
    13:00 +23°C° 0 mm 5 m/S 744 mmHg 52%
    14:00 +22°C° 0 mm 5 m/S 744 mmHg 53%
    15:00 +22°C° 0 mm 5 m/S 744 mmHg 53%
    16:00 +21°C° 0 mm 5 m/S 743 mmHg 53%
    17:00 +20°C° 0 mm 4 m/S 744 mmHg 56%
    18:00 +19°C° 0 mm 4 m/S 744 mmHg 60%
    19:00 +18°C° 0 mm 4 m/S 744 mmHg 63%
    20:00 +17°C° 0 mm 3 m/S 744 mmHg 67%
    21:00 +16°C° 0 mm 3 m/S 744 mmHg 71%
    22:00 +14°C° 0 mm 3 m/S 745 mmHg 75%
    23:00 +14°C° 0 mm 3 m/S 745 mmHg 76%

    9 Juni, Dienstag

    Zeit Temperatur Niederschläge Wind Luftdruck Luftfeuchtigkeit
    00:00 +14°C° 0 mm 3 m/S 744 mmHg 77%
    01:00 +14°C° 0 mm 3 m/S 744 mmHg 78%
    02:00 +16°C° 0 mm 3 m/S 744 mmHg 80%
    03:00 +16°C° 0 mm 3 m/S 744 mmHg 82%
    04:00 +16°C° 0 mm 3 m/S 744 mmHg 84%
    05:00 +17°C° 0 mm 4 m/S 744 mmHg 80%
    06:00 +18°C° 0 mm 4 m/S 744 mmHg 76%
    07:00 +19°C° 0 mm 5 m/S 745 mmHg 71%
    08:00 +20°C° 0 mm 5 m/S 745 mmHg 68%
    09:00 +21°C° 0 mm 5 m/S 745 mmHg 65%
    10:00 +22°C° 0 mm 5 m/S 745 mmHg 61%
    11:00 +22°C° 0.1 mm 5 m/S 745 mmHg 63%
    12:00 +22°C° 0.1 mm 5 m/S 746 mmHg 64%
    13:00 +22°C° 0.1 mm 6 m/S 746 mmHg 66%
    14:00 +22°C° 0 mm 5 m/S 746 mmHg 65%
    15:00 +21°C° 0 mm 5 m/S 746 mmHg 63%
    16:00 +21°C° 0 mm 5 m/S 746 mmHg 62%
    17:00 +20°C° 0 mm 5 m/S 746 mmHg 67%
    18:00 +19°C° 0 mm 4 m/S 746 mmHg 72%
    19:00 +19°C° 0 mm 4 m/S 746 mmHg 77%
    20:00 +18°C° 0 mm 4 m/S 746 mmHg 80%
    21:00 +18°C° 0 mm 3 m/S 747 mmHg 83%
    22:00 +17°C° 0 mm 3 m/S 747 mmHg 86%
    23:00 +17°C° 0 mm 3 m/S 747 mmHg 86%
    Mehr zeigen